Hourly Weather Roundup
Issued by NWS Central Illinois

Home | Current Version | Previous Version | Text Only | Print | Product List | Glossary On
Versions: 1 2 3 4 5 6 7 8 9 10 11 12 13 14 15 16 17 18 19 20 21 22 23 24 25 26 27 28 29 30 31 32 33 34 35 36 37 38 39 40 41 42 43 44 45 46 47 48 49 50
000
NZUS43 KILX 290410
HWRILX

Area Weather Roundup
National Weather Service Lincoln IL
1100 PM CDT SUN MAY 28 2017

NOTE:  "FAIR" indicates few or no clouds below 12,000 feet, with
       no sigificant weather and/or obstructions to visibility.


CITY           SKY/WX    TMP DP  RH WIND       PRES   REMARKS
Bloomington    CLEAR     63  52  67 SW6       29.83F
Champaign      CLEAR     65  54  67 W7        29.83S
Danville       MOCLDY    65  53  67 W6        29.81R
Decatur        CLEAR     63  54  72 SW9       29.85R
Effingham      CLOUDY    68  58  71 SW5       29.89F
Flora          CLEAR     67  58  72 W7        29.89S
Galesburg      PTCLDY    63  51  66 SW7       29.79F
Jacksonville   CLEAR     62  58  88 S6        29.85R
Lacon          CLEAR     58  53  81 CALM      29.78F
Lawrenceville  CLEAR     68  63  84 W7        29.86F
Litchfield     CLEAR     61  58  89 S5        29.89S
$$


CITY           SKY/WX    TMP DP  RH WIND       PRES   REMARKS
Lincoln        CLEAR     66  56  69 CALM      29.83F
Macomb         CLEAR     64  50  60 SW9       29.84F
Mattoon        CLOUDY    69  54  58 SW7       29.86R
Mt Carmel AP   CLEAR     66  61  83 W7        29.86F
Olney-Noble AP CLEAR     67  64  91 SW6       29.88F
Paris AP       MOCLDY    62  57  84 S8        29.86R
Peoria         CLEAR     61  52  72 CALM      29.81S
Pontiac        CLEAR     65  54  66 SW3       29.80F
Rantoul        CLEAR     65  56  71 W5        29.83S
Robinson       CLEAR     66  62  86 W8        29.87S
Springfield    CLEAR     63  59  87 SW5       29.85R
Taylorville    CLEAR     64  56  75 SW7       29.87R
$$

...REGIONAL REPORTS...


CITY           SKY/WX    TMP DP  RH WIND       PRES   REMARKS
Chicago O`Hare CLEAR     65  48  54 SW3       29.76S
Kankakee       CLEAR     62  52  69 CALM      29.80F
Moline         MOCLDY    65  51  60 W3        29.78R
Mount Sterling CLOUDY    63  52  67 SW5       29.84S
Mount Vernon     N/A     60  59  96 CALM      29.90F
Pittsfield     CLEAR     66  56  71 SW3       29.87S
Quincy         CLEAR     63  52  67 SW6       29.84S
Rockford       MOCLDY    60  52  74 S3        29.77F
$$


CITY           SKY/WX    TMP DP  RH WIND       PRES   REMARKS
Burlington     MOCLDY    67  51  56 W7        29.81S
Cedar Rapids   CLEAR     58  48  69 W10       29.80S
Des Moines     CLEAR     65  43  44 CALM      29.85S
Kirksville     MOCLDY    63  51  65 NW5       29.88R
Ottumwa        CLEAR     61  50  67 W7        29.84R
St Louis       PTCLDY    71  56  58 SW9       29.90R
$$


CITY           SKY/WX    TMP DP  RH WIND       PRES   REMARKS
Terre Haute    CLEAR     64  59  83 SW3       29.85R
Evansville     CLEAR     67  60  78 SW6       29.89R
Indianapolis   CLEAR     63  62  97 SW9       29.84R
Lafayette      CLOUDY    58  57  97 W5        29.81R
Madison        PTCLDY    60  48  64 CALM      29.73F
Milwaukee      CLEAR     66  48  52 SW8       29.73S
$$





USA.gov is the U.S. government's official web portal to all federal, state and local government web resources and services.